Wind_Speed
21 21 21 21 21 21 20 19 18 17 18 19 19 18 18 18 18 18 18 18 18 19 20 21 21 21 22 23 23 23 24 24 24 23 23 24 25 24 24 24 23 23 23 23
23 22 22 22 21 20 20 19 19 19 20 20 20 19 19 19 19 19 19 20 20 20 20 21 21 22 23 23 24 25 26 27 26 25 26 26 26 26 25 25 24 24 25 25
23 24 24 24 22 22 21 21 21 21 21 21 20 20 20 20 20 21 21 21 22 21 21 22 23 24 25 26 26 27 27 27 28 27 28 28 27 27 26 26 26 26 26 26
25 25 25 24 23 23 23 23 23 23 22 22 22 22 22 22 22 22 23 23 24 25 25 24 25 25 26 27 27 27 27 27 28 28 28 28 28 28 28 28 28 28 28 28
26 26 26 27 25 24 24 25 24 24 23 23 24 23 24 23 23 24 24 24 25 26 26 26 26 27 27 27 27 27 28 27 28 28 29 29 29 30 29 29 29 29 30 30
28 27 26 27 26 25 26 27 26 25 24 24 24 24 25 25 24 24 24 24 24 25 25 26 27 27 27 28 28 28 29 29 30 30 30 30 30 30 29 29 29 30 30 30
29 28 27 28 25 25 26 27 26 25 25 24 24 25 25 25 24 23 23 24 25 25 26 27 27 28 29 30 30 30 30 30 30 31 31 31 30 30 30 30 30 30 30 30
30 29 28 28 27 27 26 26 26 26 25 25 25 25 25 25 25 25 26 26 27 28 28 28 29 30 30 31 31 32 32 32 31 31 31 30 31 31 30 30 30 31 31 31
31 30 29 29 29 27 26 26 26 27 26 26 26 26 25 26 26 26 27 27 28 29 29 30 30 31 32 32 32 32 33 33 32 32 31 31 31 31 31 31 32 32 32 32
31 31 31 30 29 27 27 27 27 27 27 27 27 27 27 27 28 28 28 29 30 30 31 31 32 32 32 33 33 33 33 33 32 32 32 32 32 32 32 32 32 32 31 31
31 30 30 30 28 27 27 27 27 27 27 27 27 28 28 29 29 29 30 31 31 32 32 33 33 33 33 32 32 32 33 33 33 32 32 32 32 33 33 32 31 31 32 32
31 31 30 28 28 27 27 27 28 28 28 28 29 29 30 29 30 30 31 31 32 33 34 34 34 33 32 32 32 32 32 32 32 32 32 32 32 33 33 32 32 32 32 31
30 30 28 27 27 27 28 27 28 29 29 29 30 31 30 30 31 32 32 32 33 33 34 34 33 33 33 33 32 32 31 31 31 31 31 31 32 32 32 32 32 32 30 30
29 28 27 27 27 27 27 27 27 28 29 30 30 31 31 31 32 33 33 34 34 34 34 34 33 33 33 33 33 32 32 32 31 30 30 30 30 30 31 31 30 29 28 28
28 28 28 27 27 27 28 28 29 29 30 30 31 31 31 32 32 33 33 33 33 33 33 33 33 33 32 32 31 31 31 30 29 29 29 29 30 29 29 28 27 26 27 27
28 28 28 28 27 28 28 29 29 29 30 31 31 31 31 31 32 33 33 33 33 33 32 32 32 31 31 30 30 29 29 29 29 29 29 30 29 28 28 27 26 26 26 26
27 27 27 28 28 29 29 29 29 30 30 30 30 30 31 32 32 32 32 32 32 31 31 31 30 30 30 29 29 29 29 29 29 29 29 29 28 27 27 26 25 25 26 26
27 27 27 27 28 28 29 29 30 30 30 30 30 29 30 31 31 31 31 31 31 30 30 29 29 29 29 28 28 28 28 28 28 29 28 28 27 26 25 25 25 25 26 26
26 27 27 27 27 28 28 28 29 29 29 29 29 30 30 30 30 31 31 30 29 29 29 29 29 29 29 29 29 29 29 29 29 28 28 27 27 26 25 25 25 25 25 25
26 27 27 27 27 27 27 28 29 29 29 29 29 29 29 29 30 30 30 29 29 29 29 29 29 29 29 29 29 29 28 28 28 28 27 26 26 26 26 25 25 25 25 25
25 26 26 27 27 27 28 27 27 27 27 28 28 29 29 29 29 29 29 28 27 28 29 29 29 29 29 29 29 28 28 27 27 27 27 26 26 25 25 25 25 25 25 25
25 25 26 26 26 26 26 26 26 26 27 28 28 27 27 27 27 26 26 26 27 27 27 27 27 27 27 27 27 26 27 27 27 27 26 26 26 26 26 25 25 24 23 22
24 24 24 25 25 25 25 26 26 25 25 25 24 25 25 24 24 24 24 25 25 25 26 26 26 26 27 26 25 26 26 26 25 25 25 25 25 24 24 24 24 23 23 22
23 23 23 24 24 24 23 23 23 23 23 23 23 23 22 22 22 22 23 23 23 23 23 23 23 23 23 23 24 24 24 24 23 23 23 23 23 23 23 23 23 23 22 20
21 21 20 20 21 21 22 22 22 22 23 23 23 22 22 22 22 22 22 22 22 22 22 22 21 21 21 22 22 22 22 22 21 21 21 21 21 21 21 21 20 21 20 20
19 18 18 19 19 20 20 21 21 22 22 22 22 22 22 21 21 21 21 21 21 21 21 21 20 20 20 21 20 20 20 20 20 20 20 19 19 19 19 18 19 19 19 20
17 18 18 18 19 19 19 20 21 21 22 22 21 21 21 20 20 20 20 20 20 20 20 19 19 19 18 19 18 18 18 18 18 17 17 16 16 17 17 17 17 18 18 18
Wind_Direction
237 241 246 246 245 246 248 248 252 256 257 262 266 267 267 267 269 270 269 267 268 270 273 275 277 279 281 282 283 285 285 285 285 284 283 282 283 285 285 285 285 285 286 288
239 240 243 244 243 246 249 252 254 256 259 263 266 267 268 268 269 269 268 266 268 272 273 275 277 281 283 284 285 288 288 287 284 284 284 283 282 284 284 284 284 285 285 286
241 243 244 245 244 247 250 253 253 257 261 264 265 265 266 268 269 268 267 269 269 271 274 275 276 280 283 284 286 287 288 289 288 287 285 284 284 284 283 283 283 282 282 284
242 244 243 243 245 247 250 252 254 257 261 263 264 264 265 266 269 269 268 270 270 271 273 276 277 277 280 282 284 285 287 288 287 286 286 286 284 282 282 281 282 283 283 283
240 244 248 246 246 247 250 254 256 258 260 262 262 264 265 265 267 269 269 270 271 272 274 275 277 278 279 281 284 285 287 288 288 289 290 288 284 281 280 280 281 281 283 283
241 242 245 249 250 250 252 255 255 256 258 260 263 265 266 266 267 268 270 273 273 273 274 275 276 277 279 281 283 285 286 286 287 287 289 287 286 283 280 280 281 282 283 282
243 245 246 249 250 250 252 254 256 257 259 261 262 265 267 266 265 268 271 273 274 275 276 276 277 278 280 281 283 284 286 287 287 286 286 286 286 284 282 281 282 282 283 282
243 246 249 251 250 249 253 257 257 257 258 260 263 264 265 265 268 270 273 276 277 277 277 277 278 280 281 281 282 283 285 286 285 285 285 286 284 285 285 283 284 284 283 282
242 246 249 251 251 251 255 257 258 257 257 260 262 262 264 267 270 273 275 278 278 278 278 279 280 280 280 281 283 284 285 285 284 284 283 283 283 284 284 284 283 284 283 282
244 247 248 250 251 252 255 257 257 257 258 259 261 263 266 269 271 273 275 278 279 278 278 280 283 282 282 282 283 284 285 285 284 283 283 283 282 282 283 284 283 284 283 281
243 246 248 250 250 252 255 256 256 257 259 260 263 266 268 271 273 275 277 279 279 280 281 282 283 283 283 283 284 284 284 284 284 284 284 283 282 282 282 282 282 282 281 280
244 246 249 251 252 252 253 255 257 258 260 263 265 268 272 274 276 277 278 279 280 281 283 284 283 283 284 283 283 283 283 283 282 282 282 282 281 281 280 280 280 281 280 279
244 246 249 251 253 253 253 255 257 259 262 265 268 270 273 275 275 277 278 280 281 281 283 284 283 284 283 283 282 281 281 282 282 281 280 281 281 282 282 281 281 281 281 279
244 246 248 250 253 254 255 256 259 262 264 267 268 271 273 274 275 277 278 280 281 281 283 283 282 283 283 282 281 280 281 281 280 281 281 281 282 282 282 282 281 281 282 281
243 245 248 250 252 255 257 260 263 265 266 267 269 271 273 275 276 277 279 281 281 282 283 283 282 283 283 283 281 280 281 283 283 282 282 283 284 283 283 281 280 281 282 282
244 246 248 250 252 255 258 260 263 265 267 269 271 272 273 275 277 278 279 280 281 282 283 283 283 283 282 281 281 281 283 283 282 283 283 284 284 283 283 282 281 281 282 281
244 247 250 252 255 258 260 261 263 266 269 270 272 274 275 277 278 279 280 281 282 282 282 282 283 283 283 282 282 282 283 283 283 284 284 284 283 282 281 280 280 281 281 279
246 249 252 255 256 259 262 264 265 267 268 269 272 274 276 277 278 279 281 282 282 281 280 281 281 282 282 283 284 284 285 285 283 282 283 283 283 282 280 280 279 280 280 278
247 249 252 255 258 260 261 263 265 266 268 270 272 274 275 276 278 280 282 282 281 281 282 282 282 282 283 283 284 285 285 284 283 283 282 282 282 282 280 280 279 279 279 279
251 252 254 257 258 261 264 265 266 265 266 269 272 274 276 278 279 279 280 281 280 281 282 283 283 283 284 283 283 284 283 283 283 283 283 281 281 282 281 280 280 279 278 279
254 256 258 260 261 263 266 267 267 266 266 269 273 276 278 279 279 278 278 278 280 282 284 284 284 284 285 284 283 282 282 283 283 283 282 282 282 282 282 281 280 278 278 278
257 258 260 261 262 265 266 267 268 269 270 273 274 275 278 280 279 277 278 279 282 283 285 285 285 285 285 285 283 283 284 284 284 283 281 281 282 282 282 282 281 279 279 279
259 260 261 261 262 264 265 266 267 270 272 273 273 275 277 280 279 278 280 282 284 286 286 285 285 284 285 285 284 286 287 286 285 283 281 280 280 281 280 280 280 280 279 279
258 260 261 262 262 261 263 264 266 268 271 273 274 275 277 279 280 281 282 283 286 287 287 287 288 287 286 286 287 288 288 287 285 283 282 282 281 280 278 280 278 278 278 277
259 259 259 261 261 261 262 264 265 268 271 273 273 274 277 280 281 282 283 284 285 286 287 288 288 287 288 287 288 288 290 290 288 286 285 285 283 282 281 279 278 277 276 277
257 259 262 262 262 264 264 265 267 269 270 272 273 275 277 278 280 282 283 284 286 288 288 287 287 288 288 288 288 289 291 291 291 289 287 285 283 282 281 279 277 278 280 281
257 259 262 264 265 266 267 269 271 272 272 273 274 274 275 276 280 282 283 285 286 288 288 288 290 291 291 292 292 293 293 292 293 292 289 286 284 282 282 282 282 284 286 286
Height
5861 5862 5863 5865 5867 5869 5870 5873 5875 5876 5876 5875 5875 5875 5875 5875 5875 5875 5875 5874 5874 5873 5873 5872 5871 5870 5869 5868 5866 5865 5864 5862 5861 5859 5857 5856 5854 5853 5851 5849 5848 5847 5845 5843
5854 5856 5857 5859 5861 5863 5865 5866 5868 5869 5869 5869 5869 5869 5869 5869 5869 5869 5869 5869 5868 5868 5867 5867 5866 5865 5863 5862 5860 5859 5857 5856 5854 5853 5851 5849 5847 5846 5844 5843 5841 5840 5838 5837
5849 5850 5851 5853 5856 5857 5859 5860 5862 5863 5864 5863 5863 5863 5864 5864 5863 5863 5863 5863 5862 5862 5861 5861 5859 5858 5857 5856 5854 5853 5851 5849 5847 5845 5844 5842 5840 5839 5837 5836 5834 5833 5831 5829
5843 5844 5846 5850 5849 5851 5853 5854 5855 5856 5856 5857 5857 5857 5857 5857 5857 5857 5857 5856 5856 5855 5855 5854 5853 5851 5850 5849 5848 5846 5844 5842 5840 5838 5837 5835 5833 5832 5830 5828 5827 5825 5824 5822
5836 5837 5839 5841 5842 5845 5846 5847 5849 5849 5850 5850 5851 5851 5851 5850 5850 5850 5850 5849 5849 5848 5848 5847 5845 5844 5843 5842 5841 5839 5837 5835 5833 5831 5830 5828 5826 5824 5822 5820 5819 5817 5816 5814
5828 5831 5833 5835 5836 5838 5840 5840 5841 5842 5843 5843 5844 5845 5845 5844 5844 5843 5843 5842 5842 5841 5840 5840 5839 5837 5836 5835 5833 5832 5830 5828 5826 5824 5822 5820 5818 5816 5814 5812 5810 5809 5807 5806
5820 5823 5825 5826 5828 5831 5833 5833 5834 5835 5836 5836 5837 5838 5838 5837 5836 5836 5836 5835 5835 5834 5833 5832 5831 5830 5828 5827 5825 5824 5821 5819 5817 5815 5813 5811 5810 5808 5806 5804 5802 5800 5799 5797
5813 5815 5819 5819 5821 5823 5824 5825 5826 5827 5828 5829 5829 5830 5830 5830 5829 5829 5829 5828 5827 5826 5825 5824 5823 5821 5820 5818 5817 5815 5813 5811 5809 5807 5805 5803 5802 5800 5798 5796 5794 5792 5790 5788
5805 5809 5810 5811 5813 5814 5816 5818 5819 5820 5821 5821 5822 5822 5822 5822 5822 5821 5821 5820 5818 5818 5817 5816 5814 5813 5811 5809 5808 5806 5804 5802 5800 5798 5796 5795 5793 5791 5789 5787 5785 5783 5781 5779
5796 5799 5801 5803 5805 5807 5808 5810 5811 5812 5813 5814 5814 5814 5815 5815 5814 5813 5813 5811 5810 5809 5808 5806 5805 5803 5801 5800 5798 5796 5794 5792 5790 5789 5787 5785 5784 5782 5780 5778 5776 5774 5772 5771
5788 5790 5793 5795 5797 5799 5801 5802 5803 5804 5805 5806 5806 5806 5806 5806 5805 5805 5804 5803 5802 5800 5799 5797 5795 5793 5792 5790 5788 5786 5784 5783 5781 5779 5777 5776 5774 5772 5771 5769 5767 5765 5763 5761
5780 5783 5786 5788 5789 5791 5793 5794 5795 5796 5797 5798 5798 5798 5797 5797 5796 5795 5795 5793 5792 5790 5789 5787 5785 5783 5782 5780 5778 5776 5774 5773 5771 5769 5767 5766 5764 5763 5761 5759 5757 5755 5754 5752
5772 5775 5777 5779 5781 5783 5784 5786 5787 5788 5789 5789 5789 5789 5788 5788 5787 5786 5785 5784 5782 5781 5779 5777 5775 5773 5772 5770 5768 5766 5765 5763 5761 5759 5758 5756 5754 5753 5751 5749 5748 5746 5744 5743
5765 5767 5769 5771 5773 5775 5776 5777 5778 5779 5780 5780 5780 5780 5779 5779 5778 5777 5775 5774 5772 5770 5769 5767 5765 5764 5762 5760 5758 5756 5755 5753 5752 5750 5748 5746 5745 5743 5742 5740 5738 5736 5735 5734
5757 5759 5762 5764 5766 5767 5768 5769 5770 5770 5771 5771 5770 5770 5770 5769 5768 5767 5765 5764 5762 5760 5759 5757 5755 5754 5752 5750 5748 5747 5746 5744 5742 5741 5739 5737 5736 5734 5732 5731 5729 5728 5727 5725
5750 5752 5754 5756 5757 5759 5760 5760 5761 5761 5761 5761 5761 5760 5760 5759 5758 5757 5755 5754 5752 5750 5749 5747 5745 5744 5742 5741 5739 5738 5736 5735 5734 5732 5730 5729 5727 5725 5724 5722 5721 5720 5718 5717
5742 5744 5746 5747 5749 5750 5751 5751 5752 5752 5752 5752 5751 5751 5750 5749 5748 5747 5745 5744 5742 5740 5739 5738 5736 5735 5733 5732 5730 5729 5727 5726 5725 5723 5722 5720 5719 5717 5715 5714 5713 5711 5710 5709
5734 5736 5738 5739 5740 5741 5742 5742 5742 5743 5742 5742 5742 5741 5740 5739 5738 5737 5736 5734 5732 5731 5730 5728 5727 5726 5724 5723 5721 5720 5718 5717 5715 5714 5713 5711 5709 5708 5706 5705 5704 5703 5702 5701
5726 5728 5729 5730 5731 5732 5732 5733 5733 5733 5733 5732 5732 5732 5731 5730 5729 5728 5726 5724 5723 5722 5721 5719 5718 5716 5715 5714 5712 5710 5709 5707 5706 5704 5703 5702 5700 5699 5698 5697 5695 5694 5693 5692
5719 5720 5721 5722 5722 5723 5723 5724 5724 5724 5723 5723 5722 5722 5721 5720 5719 5718 5716 5715 5714 5712 5711 5710 5708 5707 5706 5704 5702 5701 5699 5697 5696 5694 5693 5692 5691 5690 5689 5688 5687 5686 5685 5684
5711 5712 5712 5713 5714 5714 5715 5715 5715 5714 5714 5714 5713 5712 5712 5711 5709 5708 5707 5706 5705 5703 5702 5700 5699 5697 5696 5694 5692 5691 5689 5687 5686 5685 5683 5682 5682 5681 5680 5678 5677 5677 5676 5675
5703 5704 5704 5705 5706 5706 5706 5706 5706 5706 5705 5705 5704 5703 5702 5701 5700 5699 5698 5697 5695 5694 5692 5691 5689 5688 5686 5684 5682 5681 5679 5678 5676 5675 5674 5673 5672 5671 5670 5669 5668 5668 5667 5666
5695 5696 5696 5697 5697 5698 5698 5697 5697 5697 5696 5696 5695 5695 5694 5693 5691 5691 5690 5689 5687 5685 5684 5682 5680 5679 5677 5675 5673 5671 5670 5668 5667 5665 5664 5663 5663 5662 5661 5660 5660 5659 5659 5659
5688 5688 5689 5689 5689 5689 5690 5690 5689 5689 5689 5688 5687 5687 5686 5685 5684 5683 5682 5681 5679 5678 5676 5674 5673 5671 5669 5667 5665 5663 5661 5660 5658 5657 5655 5655 5654 5653 5653 5652 5652 5652 5651 5651
5681 5681 5681 5681 5681 5682 5682 5682 5682 5682 5681 5680 5680 5679 5678 5677 5676 5675 5674 5673 5672 5670 5669 5667 5665 5663 5661 5659 5657 5655 5654 5652 5650 5649 5648 5647 5646 5645 5645 5644 5644 5644 5644 5643
5674 5674 5674 5674 5675 5675 5675 5675 5675 5674 5674 5673 5672 5672 5671 5670 5669 5668 5667 5666 5664 5663 5662 5660 5658 5656 5654 5652 5650 5648 5646 5645 5643 5642 5641 5640 5639 5639 5638 5637 5637 5637 5636 5636
5668 5668 5669 5669 5669 5669 5669 5668 5668 5667 5667 5666 5665 5665 5664 5663 5662 5661 5660 5659 5658 5657 5655 5653 5652 5650 5648 5646 5644 5642 5640 5638 5637 5635 5634 5634 5633 5632 5632 5631 5631 5630 5629 5629